This is the latest recevied weather packets stored in our database for station/object KD9DOE. If no packets are shown the sender has not sent any weather packets the latest 10 day(s).
| Time | Temp. | Humidity | Pressure | Rain* | Wind** | Luminosity | Snow |
|---|---|---|---|---|---|---|---|
| 1777845506 | 21.67° C | 35% | 1004.2 hPa | 0 mm | - | 155 W/m² | - |
| 1777845204 | 21.67° C | 35% | 1004.1 hPa | 0 mm | - | 108 W/m² | - |
| 1777844901 | 21.67° C | 35% | 1004.2 hPa | 0 mm | - | 229 W/m² | - |
| 1777844598 | 21.67° C | 35% | 1004.3 hPa | 0 mm | - | 156 W/m² | - |
| 1777844296 | 21.11° C | 35% | 1004.3 hPa | 0 mm | - | 150 W/m² | - |
| 1777843993 | 21.11° C | 35% | 1004.1 hPa | 0 mm | - | 301 W/m² | - |
| 1777843690 | 21.11° C | 34% | 1004.6 hPa | 0 mm | - | 207 W/m² | - |
| 1777843388 | 21.11° C | 35% | 1004.4 hPa | 0 mm | - | 228 W/m² | - |
| 1777843085 | 21.11° C | 36% | 1004.4 hPa | 0 mm | - | 143 W/m² | - |
| 1777842782 | 21.11° C | 36% | 1004.4 hPa | 0 mm | - | 335 W/m² | - |
| 1777842481 | 21.11° C | 36% | 1004.4 hPa | 0 mm | - | 303 W/m² | - |
| 1777842179 | 21.11° C | 35% | 1004.5 hPa | 0 mm | - | 213 W/m² | - |
| 1777841874 | 21.11° C | 35% | 1004.6 hPa | 0 mm | - | 184 W/m² | - |
| 1777841571 | 20.56° C | 36% | 1004.5 hPa | 0 mm | - | 222 W/m² | - |
| 1777841267 | 20.56° C | 36% | 1004.5 hPa | 0 mm | - | 155 W/m² | - |
| 1777840965 | 20.56° C | 37% | 1004.8 hPa | 0 mm | - | 324 W/m² | - |
| 1777840662 | 20.56° C | 36% | 1005 hPa | 0 mm | - | 87 W/m² | - |
| 1777840360 | 20.56° C | 37% | 1004.8 hPa | 0 mm | - | 83 W/m² | - |
| 1777840057 | 20.56° C | 36% | 1004.9 hPa | 0 mm | - | 70 W/m² | - |
| 1777839754 | 20° C | 37% | 1005.1 hPa | 0 mm | - | 234 W/m² | - |
| 1777839452 | 20.56° C | 35% | 1005.2 hPa | 0 mm | - | 590 W/m² | - |
| 1777839150 | 20.56° C | 35% | 1005.2 hPa | 0 mm | - | 645 W/m² | - |
| 1777838846 | 21.11° C | 35% | 1005.2 hPa | 0 mm | - | 638 W/m² | - |
| 1777838542 | 20.56° C | 37% | 1005.2 hPa | 0 mm | - | 669 W/m² | - |
| 1777838239 | 20.56° C | 36% | 1005.3 hPa | 0 mm | - | 672 W/m² | - |
* Rain latest hour (hover to see other rain measurements)
** Current wind speed in m/s (hover to see current wind gust speed)